| time (UTC) | temp F | wind direction | speed knots | gust knots | rain 1hr in | rain 24hr in | rain mn in | humidity % | barometer mb |
| 20260503182026 | 58 | 333 | 3.5 | 7.0 | 0.00 | 0.00 | 0.00 | 81 | 1010.1 |
| 20260503181023 | 59 | 338 | 1.7 | 6.1 | 0.00 | 0.00 | 0.00 | 80 | 1010.1 |
| 20260503180021 | 59 | 341 | 2.6 | 5.2 | 0.00 | 0.00 | 0.00 | 80 | 1010.0 |
| 20260503175018 | 59 | 25 | 2.6 | 5.2 | 0.00 | 0.00 | 0.00 | 80 | 1010.1 |
| 20260503174015 | 59 | 351 | 3.5 | 7.0 | 0.00 | 0.00 | 0.00 | 78 | 1009.8 |
| 20260503173112 | 59 | 359 | 5.2 | 9.6 | 0.00 | 0.00 | 0.00 | 75 | 1009.8 |
| 20260503172110 | 59 | 355 | 3.5 | 7.8 | 0.00 | 0.00 | 0.00 | 74 | 1009.8 |
| 20260503171107 | 59 | 15 | 4.3 | 9.6 | 0.00 | 0.00 | 0.00 | 74 | 1009.8 |
| 20260503170105 | 59 | 23 | 6.1 | 11.3 | 0.00 | 0.00 | 0.00 | 76 | 1009.8 |
| 20260503131105 | 63 | 278 | 1.7 | 6.1 | 0.00 | 0.00 | 0.00 | 72 | 1011.5 |
| 20260503081046 | 60 | 3 | 3.5 | 7.0 | 0.00 | 0.00 | 0.00 | 81 | 1012.2 |
| 20260503072033 | 59 | 350 | 3.5 | 7.0 | 0.00 | 0.00 | 0.00 | 87 | 1012.3 |
| 20260503071030 | 58 | 23 | 3.5 | 6.1 | 0.00 | 0.00 | 0.00 | 89 | 1012.1 |
| 20260503055110 | 58 | 2 | 3.5 | 6.1 | 0.00 | 0.00 | 0.00 | 88 | 1012.3 |
| 20260503054107 | 58 | 2 | 1.7 | 5.2 | 0.00 | 0.00 | 0.00 | 87 | 1012.3 |
| 20260503053104 | 58 | 9 | 1.7 | 3.5 | 0.00 | 0.00 | 0.00 | 87 | 1012.2 |
| 20260503052102 | 58 | 322 | 1.7 | 3.5 | 0.00 | 0.00 | 0.00 | 86 | 1012.1 |
| 20260503051059 | 58 | 11 | 1.7 | 3.5 | 0.00 | 0.00 | 0.00 | 87 | 1012.1 |
| 20260503050056 | 58 | 340 | 1.7 | 5.2 | 0.00 | 0.00 | 0.00 | 87 | 1012.1 |
| 20260503045054 | 58 | 326 | 2.6 | 3.5 | 0.00 | 0.00 | 0.00 | 87 | 1012.1 |
| 20260503044051 | 58 | 16 | 0.9 | 3.5 | 0.00 | 0.00 | 0.00 | 87 | 1012.1 |
| 20260503043049 | 58 | 21 | 2.6 | 5.2 | 0.00 | 0.00 | 0.00 | 87 | 1012.0 |
| 20260503042046 | 58 | 6 | 2.6 | 5.2 | 0.00 | 0.00 | 0.00 | 87 | 1012.2 |
| 20260503041044 | 58 | 314 | 2.6 | 3.5 | 0.00 | 0.00 | 0.00 | 89 | 1012.2 |
| 20260503040041 | 58 | 307 | 2.6 | 3.5 | 0.00 | 0.00 | 0.00 | 90 | 1012.5 |
| 20260503035038 | 58 | 279 | 1.7 | 3.5 | 0.00 | 0.00 | 0.00 | 91 | 1012.5 |
| 20260503034036 | 58 | 308 | 1.7 | 3.5 | 0.00 | 0.00 | 0.00 | 91 | 1012.5 |
| 20260503033033 | 58 | 315 | 2.6 | 3.5 | 0.00 | 0.00 | 0.00 | 91 | 1012.6 |
| 20260503032031 | 58 | 343 | 0.9 | 3.5 | 0.00 | 0.00 | 0.00 | 90 | 1012.6 |
| 20260503031028 | 58 | 320 | 2.6 | 5.2 | 0.00 | 0.00 | 0.00 | 90 | 1012.8 |
| 20260503030025 | 58 | 316 | 1.7 | 3.5 | 0.00 | 0.00 | 0.00 | 89 | 1012.9 |
| 20260503025023 | 58 | 336 | 1.7 | 3.5 | 0.00 | 0.00 | 0.00 | 89 | 1013.0 |
| 20260503024020 | 58 | 322 | 1.7 | 3.5 | 0.00 | 0.00 | 0.00 | 89 | 1013.1 |
| 20260503023017 | 58 | 325 | 0.9 | 3.5 | 0.00 | 0.00 | 0.00 | 90 | 1013.0 |
| 20260503022115 | 58 | 27 | 1.7 | 3.5 | 0.00 | 0.00 | 0.00 | 90 | 1013.0 |
| 20260503021112 | 58 | 32 | 1.7 | 3.5 | 0.00 | 0.00 | 0.00 | 89 | 1013.0 |
| 20260503020109 | 58 | 28 | 0.9 | 3.5 | 0.00 | 0.00 | 0.00 | 89 | 1013.1 |
| 20260503015106 | 58 | 1 | 0.9 | 3.5 | 0.00 | 0.00 | 0.00 | 89 | 1013.2 |
| 20260503014104 | 58 | 324 | 0.9 | 3.5 | 0.00 | 0.00 | 0.00 | 88 | 1013.1 |
| 20260503013101 | 58 | 8 | 1.7 | 5.2 | 0.00 | 0.00 | 0.00 | 88 | 1013.2 |
| 20260503012058 | 58 | 314 | 2.6 | 5.2 | 0.00 | 0.00 | 0.00 | 89 | 1013.2 |
| 20260503011056 | 58 | 10 | 2.6 | 5.2 | 0.00 | 0.00 | 0.00 | 89 | 1013.3 |
| 20260503010053 | 58 | 344 | 1.7 | 5.2 | 0.00 | 0.00 | 0.00 | 89 | 1013.7 |
| 20260503005051 | 58 | 328 | 1.7 | 3.5 | 0.00 | 0.00 | 0.00 | 89 | 1013.9 |
| 20260503004048 | 58 | 359 | 2.6 | 3.5 | 0.00 | 0.00 | 0.00 | 89 | 1013.9 |
| 20260503003045 | 59 | 304 | 1.7 | 5.2 | 0.00 | 0.00 | 0.00 | 88 | 1014.1 |
| 20260503002043 | 59 | 29 | 1.7 | 5.2 | 0.00 | 0.00 | 0.00 | 88 | 1014.3 |
| 20260503001040 | 59 | 338 | 2.6 | 6.1 | 0.00 | 0.00 | 0.00 | 88 | 1014.2 |
| 20260503000038 | 59 | 344 | 1.7 | 6.1 | 0.00 | 0.00 | 0.00 | 88 | 1014.5 |
| 20260502235035 | 59 | 305 | 3.5 | 7.8 | 0.00 | 0.00 | 0.00 | 87 | 1014.5 |
| 20260502234032 | 59 | 358 | 4.3 | 7.8 | 0.00 | 0.00 | 0.00 | 87 | 1014.7 |
| 20260502233030 | 59 | 334 | 3.5 | 7.0 | 0.00 | 0.00 | 0.00 | 88 | 1014.7 |
| 20260502232027 | 59 | 340 | 3.5 | 6.1 | 0.00 | 0.00 | 0.00 | 88 | 1014.9 |
| 20260502231024 | 59 | 320 | 3.5 | 5.2 | 0.00 | 0.00 | 0.00 | 88 | 1014.9 |
| 20260502230021 | 59 | 2 | 2.6 | 6.1 | 0.00 | 0.00 | 0.00 | 87 | 1014.8 |
| 20260502225018 | 59 | 349 | 2.6 | 6.1 | 0.00 | 0.00 | 0.00 | 87 | 1014.6 |
| 20260502224016 | 59 | 308 | 2.6 | 6.1 | 0.00 | 0.00 | 0.00 | 87 | 1014.7 |
| 20260502223113 | 59 | 331 | 2.6 | 5.2 | 0.00 | 0.00 | 0.00 | 87 | 1014.9 |
| 20260502222111 | 59 | 316 | 4.3 | 7.0 | 0.00 | 0.00 | 0.00 | 87 | 1015.0 |
| 20260502221108 | 59 | 335 | 5.2 | 7.0 | 0.00 | 0.00 | 0.00 | 86 | 1015.2 |
| 20260502220106 | 59 | 351 | 4.3 | 7.0 | 0.00 | 0.00 | 0.00 | 86 | 1015.2 |
| 20260502215103 | 59 | 351 | 5.2 | 9.6 | 0.00 | 0.00 | 0.00 | 86 | 1015.1 |
| 20260502214100 | 59 | 330 | 3.5 | 7.8 | 0.00 | 0.00 | 0.00 | 86 | 1015.2 |
| 20260502213058 | 59 | 348 | 1.7 | 5.2 | 0.00 | 0.00 | 0.00 | 86 | 1015.4 |
| 20260502212055 | 59 | 359 | 3.5 | 6.1 | 0.00 | 0.00 | 0.00 | 86 | 1015.5 |
| 20260502211053 | 59 | 11 | 2.6 | 6.1 | 0.00 | 0.00 | 0.00 | 86 | 1015.4 |
| 20260502210050 | 59 | 350 | 1.7 | 3.5 | 0.00 | 0.00 | 0.00 | 86 | 1015.6 |
| 20260502205048 | 59 | 340 | 2.6 | 6.1 | 0.00 | 0.00 | 0.00 | 86 | 1015.4 |
| 20260502204045 | 59 | 14 | 2.6 | 7.0 | 0.00 | 0.00 | 0.00 | 86 | 1015.6 |
| 20260502203042 | 59 | 351 | 2.6 | 5.2 | 0.00 | 0.00 | 0.00 | 86 | 1015.4 |
| 20260502202039 | 59 | 51 | 1.7 | 5.2 | 0.00 | 0.00 | 0.00 | 86 | 1015.5 |
| 20260502201037 | 59 | 23 | 3.5 | 6.1 | 0.00 | 0.00 | 0.00 | 86 | 1015.3 |
| 20260502200034 | 59 | 330 | 3.5 | 7.0 | 0.00 | 0.00 | 0.00 | 85 | 1015.2 |
| 20260502195031 | 59 | 334 | 3.5 | 6.1 | 0.00 | 0.00 | 0.00 | 84 | 1015.1 |
| 20260502194028 | 59 | 350 | 2.6 | 6.1 | 0.00 | 0.00 | 0.00 | 84 | 1015.0 |
| 20260502193026 | 60 | 329 | 2.6 | 5.2 | 0.00 | 0.00 | 0.00 | 84 | 1015.1 |
| 20260502192023 | 59 | 15 | 2.6 | 6.1 | 0.00 | 0.00 | 0.00 | 84 | 1015.2 |
| 20260502191020 | 60 | 94 | 1.7 | 3.5 | 0.00 | 0.00 | 0.00 | 83 | 1015.0 |
| 20260502190018 | 60 | 114 | 0.9 | 3.5 | 0.00 | 0.00 | 0.00 | 81 | 1015.2 |
| 20260502185015 | 60 | 60 | 3.5 | 7.0 | 0.00 | 0.00 | 0.00 | 80 | 1015.1 |
| 20260502184113 | 60 | 74 | 2.6 | 6.1 | 0.00 | 0.00 | 0.00 | 79 | 1014.9 |
| 20260502183110 | 61 | 133 | 0.9 | 3.5 | 0.00 | 0.00 | 0.00 | 78 | 1015.2 |